Zurück zum Katalog

COSMOS 397 DEB

AktivLEO
NORAD 5019·DEBRIS·🇷🇺 Russia

Gestartet Feb 25, 1971 von Baikonur Cosmodrome

Loading…

Nächste Überflüge (nächste 24 Stunden)

TLE

AktuellSource: Space-Track

Epoche: Sep 14, 2026, 00:08 UTC

1 05019U 71015N   26257.00617288  .00010196  00000-0  15816-2 0  9993
2 05019  65.6768 254.9972 0381008 331.5535  26.5214 14.34755026724963

Verfolge COSMOS 397 DEB in Echtzeit mit AllMySat

Download on the App Store